Simultaneous Nadir Overpasses (SNOs) Predictions

Prediction of SNOs between AURA and NPP Satellite Orbit:

Table of predicted SNOs for the next 14.0 days since TLE Epoch: 4/9/2022
Index Date (AURA) Time (AURA) Lat,Lon (AURA) SZA (AURA ) Date (NPP) Time (NPP) Lat,Lon (NPP) SZA (NPP ) Distance(km) Time Diff (sec)
1 04/10/2022 03:41:52 -79.53,-158.47 95.38 04/10/2022 03:41:42 -79.53,-158.38 95.38 1.82 10
2 04/10/2022 04:31:13 79.71, 10.51 84.34 04/10/2022 04:32:21 79.71, 10.47 84.30 1.04 68
3 04/12/2022 19:09:01 79.32, 148.35 83.95 04/12/2022 19:07:57 79.32, 148.42 83.98 1.61 64
4 04/12/2022 19:58:20 -79.63, -41.87 96.52 04/12/2022 19:58:33 -79.64, -41.72 96.56 3.14 13
5 04/15/2022 11:25:28 79.40, -95.26 82.86 04/15/2022 11:24:48 79.40, -95.25 82.89 0.22 40
6 04/15/2022 12:14:48 -79.67, 74.28 97.56 04/15/2022 12:15:25 -79.67, 74.37 97.60 1.79 37
7 04/18/2022 03:41:54 79.52, 21.48 81.72 04/18/2022 03:41:38 79.53, 21.60 81.71 2.54 16
8 04/18/2022 04:31:17 -79.68,-169.74 98.54 04/18/2022 04:32:19 -79.67,-169.85 98.56 2.25 62
9 04/20/2022 19:09:04 -79.25, -32.10 98.82 04/20/2022 19:07:56 -79.24, -32.17 98.75 1.55 68



Historial Predications of SNOs between AURA and NPP
